Regional Weather Roundup
Issued by NWS

Home | Current Version | Previous Version | Text Only | Print | Product List | Glossary Off
Versions: 1 2 3 4 5 6 7 8 9 10 11 12 13 14 15 16 17 18 19 20 21 22 23 24 25 26 27

000
ASUS45 KBOI 200610
RWRID
WEATHER ROUNDUP FOR IDAHO
NATIONAL WEATHER SERVICE BOISE ID
1200 AM MDT SUN APR 20 2014

NOTE: "FAIR" INDICATES FEW OR NO CLOUDS BELOW 12000 FEET
WITH NO SIGNIFICANT WEATHER AND/OR OBSTRUCTIONS TO VISIBILITY

IDZ012-014-200700-
SOUTHWEST IDAHO


CITY           SKY/WX    TMP DP  RH WIND       PRES   REMARKS
BOISE          MOCLDY    56  32  40 NW17      30.03R
CALDWELL       MOCLDY    57  28  33 NW16G23   30.07R
MOUNTAIN HOME  CLEAR     57  31  37 NW26G33   30.00R
$$

IDZ016-017-200700-
SOUTHCENTRAL IDAHO


CITY           SKY/WX    TMP DP  RH WIND       PRES   REMARKS
BURLEY         PTCLDY    51  36  56 S10       29.92S
JEROME         PTCLDY    56  28  34 SW12      29.94R
TWIN FALLS     PTCLDY    61  23  23 W23G31    29.96R
$$

IDZ019>023-200700-
SOUTHEAST IDAHO


CITY           SKY/WX    TMP DP  RH WIND       PRES   REMARKS
IDAHO FALLS    PTCLDY    48  27  44 SW7       29.97R
POCATELLO      MOCLDY    59  29  31 S17       29.95F
REXBURG        PTCLDY    52  22  30 S7        29.95S
$$

IDZ006-010-011-018-031-032-200700-
CENTRAL IDAHO MOUNTAINS


CITY           SKY/WX    TMP DP  RH WIND       PRES   REMARKS
MCCALL         CLOUDY    45  26  47 N12G21    30.03R
HAILEY         CLEAR     46  23  39 NW12      30.01R
STANLEY          N/A     42  22  44 VRB7      30.02R
SALMON         MOCLDY    46  23  39 CALM      29.89R
CHALLIS        PTCLDY    47  17  30 S3        29.95R
$$

IDZ002-004-006-007-026-200700-
NORTHERN IDAHO


CITY           SKY/WX    TMP DP  RH WIND       PRES   REMARKS
LEWISTON       MOCLDY    53  30  41 W12G21    30.09R
LOWELL           N/A     47  44  90 CALM      30.13R
COEUR D`ALENE  MOCLDY    46  37  71 SW12      30.00R
MULLAN PASS    CLOUDY    30  28  93 SW14G28   29.97R WCI  20
$$



USA.gov is the U.S. government's official web portal to all federal, state and local government web resources and services.